Temperature
23 22 22 22 21 21 20 20 19 19 19 19 19 19 19 18 18 17 17 16 16 16 16 16 15 15 16 15 15 16 16 16 17 17 17 18 18 18 17 17 18 18 18
23 22 22 22 22 21 21 20 20 20 20 19 19 19 18 18 18 17 17 16 16 16 15 15 15 15 15 15 15 15 15 16 16 16 17 18 19 18 18 18 18 18 18
24 23 23 23 22 21 21 20 20 20 20 20 19 19 18 18 18 17 17 16 16 15 15 15 15 15 15 15 15 15 14 15 15 16 17 18 19 20 19 18 18 18 18
24 24 23 23 22 21 21 20 20 20 20 20 19 19 19 19 18 17 17 16 15 15 15 15 14 15 14 14 14 14 14 13 14 15 16 16 17 18 19 19 18 17 17
23 23 22 22 21 21 20 20 20 20 20 20 20 20 19 18 18 17 16 16 15 15 14 14 14 14 14 14 14 14 14 14 14 14 15 15 15 15 16 18 19 18 17
21 21 20 20 20 19 19 19 20 20 20 20 20 19 19 18 18 17 16 16 15 14 14 14 14 14 13 13 13 14 14 14 14 14 14 15 15 16 16 17 17 18 17
17 17 18 18 18 18 18 19 19 19 19 19 19 19 19 18 18 17 16 15 15 15 14 14 14 14 14 14 13 13 14 14 14 14 14 14 14 15 15 16 17 17 16
15 14 14 15 15 15 16 16 17 17 18 18 18 18 18 17 17 16 16 15 15 15 15 14 14 14 13 13 13 13 13 13 14 14 14 14 14 14 15 15 15 15 15
14 14 14 14 13 13 14 14 14 15 15 16 16 17 17 17 16 16 16 15 15 14 14 14 14 13 13 13 13 13 13 14 14 14 14 14 14 14 14 14 15 15 15
14 13 13 13 13 13 12 12 13 13 14 14 15 15 16 16 16 15 15 15 15 14 14 14 14 13 13 13 13 13 13 13 14 13 13 14 14 14 14 14 14 15 15
13 13 12 12 12 12 12 11 12 12 12 13 13 14 14 14 15 15 15 14 14 14 14 14 13 13 13 13 13 13 13 13 13 13 13 13 13 14 14 14 14 14 14
13 13 12 12 11 11 11 11 11 11 11 11 12 12 12 13 13 14 14 14 14 14 13 13 13 12 12 12 13 13 12 12 12 13 13 13 13 13 14 14 14 14 14
12 12 12 11 11 10 10 10 10 10 10 10 10 11 11 11 12 12 13 13 13 14 13 13 13 12 12 12 12 12 12 12 12 12 12 12 13 13 13 13 13 13 13
11 10 10 10 10 9 9 9 9 9 9 9 10 10 10 10 11 11 12 12 13 13 13 13 12 12 12 12 12 12 12 12 12 12 12 12 12 12 12 13 13 13 12
10 9 9 9 9 9 9 9 9 8 8 8 8 8 8 9 10 10 11 11 12 12 12 12 12 12 12 12 12 12 12 12 12 12 12 12 12 12 12 12 12 12 11
11 11 10 10 10 10 9 9 9 8 8 8 8 8 8 8 8 9 10 10 11 12 12 12 12 12 12 12 12 12 11 11 11 12 12 12 12 12 12 12 11 11 11
12 12 11 11 11 10 10 10 9 9 8 8 8 8 8 8 8 9 9 9 10 11 11 11 12 12 12 12 12 12 11 11 11 11 11 12 12 12 12 11 11 11 11
12 11 11 11 11 10 10 10 10 9 9 9 9 9 9 9 9 9 9 9 9 10 10 11 11 11 11 12 12 12 11 11 11 11 11 11 11 11 11 11 11 11 11
11 10 10 10 10 10 9 9 9 9 9 9 9 9 9 9 9 9 9 9 9 9 10 10 10 11 11 11 12 12 11 11 11 11 11 11 11 11 11 11 11 11 11
10 9 9 9 9 9 9 9 9 9 9 9 9 9 9 9 8 8 8 8 8 8 9 9 10 10 10 11 11 11 11 11 11 11 11 11 11 11 11 11 11 11 11
9 9 9 8 8 8 8 8 8 8 8 8 8 8 8 8 8 8 8 8 8 8 8 8 9 9 9 10 11 11 11 12 11 11 11 11 11 11 11 11 11 11 11
9 8 8 8 7 7 7 7 7 7 7 7 7 7 7 7 8 8 8 7 8 8 8 8 8 9 9 9 10 11 11 11 11 12 11 11 11 11 11 11 11 11 10
8 8 7 7 6 6 6 6 6 6 6 6 6 6 6 6 7 7 7 7 7 8 9 9 8 8 8 8 10 10 11 11 11 11 11 11 10 10 10 10 10 10 10
8 7 7 6 6 5 5 5 5 5 5 5 5 5 5 6 6 6 7 8 8 8 9 9 8 8 8 8 9 10 10 10 10 11 11 10 10 10 9 9 9 9 10
7 7 6 5 5 5 5 5 5 5 5 5 5 5 5 5 5 6 6 7 8 8 8 8 7 7 8 8 9 9 9 9 10 10 10 9 9 9 9 9 9 9 9
7 6 5 4 4 4 4 4 4 4 4 4 4 4 4 4 5 5 6 7 7 7 7 7 7 7 7 8 8 9 9 10 10 10 10 10 10 10 10 9 9 9 9
Wind_Speed
10 9 8 8 7 6 5 5 4 4 3 2 2 2 3 3 3 2 1 2 3 4 5 8 8 9 10 11 13 13 14 13 12 12 14 14 16 16 14 15 15 17 17
10 9 9 8 7 7 5 5 5 4 4 3 2 2 3 4 4 3 2 3 3 5 6 7 9 10 10 12 13 13 13 14 12 12 13 14 14 14 16 15 15 16 15
11 10 10 9 8 6 5 4 4 4 5 4 4 4 4 5 5 5 5 3 4 5 6 8 10 10 11 11 11 12 14 14 14 14 13 12 14 12 12 15 14 14 13
9 8 8 7 7 5 5 5 5 6 6 7 7 7 7 8 7 6 5 4 4 6 7 8 9 10 10 10 11 11 12 13 13 13 14 16 16 14 12 10 12 13 13
5 4 3 3 3 4 5 6 7 8 8 8 7 7 8 8 7 5 5 6 6 6 7 8 9 10 10 11 11 12 13 12 13 13 13 14 14 16 15 14 11 11 12
2 5 6 6 6 7 7 8 8 9 8 8 8 8 8 8 8 7 7 7 6 6 6 8 9 10 10 11 12 12 13 12 13 13 13 13 12 13 14 15 14 12 9
14 14 14 14 13 12 11 10 9 8 7 7 7 7 7 7 8 8 7 7 7 7 6 8 9 10 11 12 12 12 13 13 13 13 12 13 14 13 13 13 13 11 8
17 17 16 15 15 15 15 14 12 9 7 5 4 5 6 7 7 7 7 7 7 7 7 9 10 11 12 12 12 12 13 11 12 13 13 12 13 13 13 13 12 10 9
17 16 16 16 16 16 16 16 15 13 12 9 6 5 5 7 7 7 8 8 6 7 8 9 11 11 12 12 13 12 13 12 12 13 13 12 12 12 12 12 12 11 9
16 16 16 16 16 16 15 15 15 15 14 14 12 8 8 7 8 9 9 9 9 9 9 10 11 11 11 12 12 13 12 12 12 10 12 12 11 11 11 11 11 11 9
15 14 14 14 15 15 16 15 15 15 14 14 14 13 11 10 9 9 11 11 11 10 10 10 11 11 11 11 11 12 12 11 10 9 9 10 10 9 9 9 9 9 8
14 14 14 14 14 14 15 15 15 14 14 14 14 14 13 13 12 11 12 12 13 13 12 11 11 11 10 10 10 10 10 9 8 8 7 8 7 7 7 7 8 7 8
17 16 15 14 14 14 14 13 13 14 14 14 14 14 14 14 13 13 14 14 14 14 14 13 12 11 9 9 9 8 7 7 6 5 5 5 4 2 1 3 4 5 8
16 15 15 13 13 12 12 12 12 11 12 13 13 12 12 12 12 13 14 14 15 15 16 15 13 11 10 9 7 6 5 4 4 4 4 4 4 4 5 6 8 9 11
16 14 13 12 11 10 10 10 11 10 9 10 11 12 12 12 12 12 13 14 15 16 16 16 14 12 10 8 7 5 3 2 1 3 3 5 7 9 8 8 9 9 9
19 19 18 17 16 16 15 14 15 14 13 12 13 13 13 14 13 13 13 14 14 14 15 16 15 14 11 7 4 7 4 2 1 3 4 6 8 12 13 13 11 8 7
22 23 23 22 21 21 20 19 18 17 16 16 16 15 14 14 14 14 14 13 13 13 14 15 16 15 12 12 10 8 5 4 3 3 3 6 9 10 11 13 12 10 7
26 26 25 25 24 24 23 22 21 20 19 18 17 17 17 16 15 14 14 12 12 12 12 13 14 15 13 15 13 10 8 6 5 5 6 7 9 9 11 12 11 9 8
27 26 26 27 26 25 25 24 23 22 21 21 20 19 18 17 16 16 15 13 12 11 11 11 12 14 13 16 15 13 10 8 7 6 6 7 9 8 9 11 11 11 9
26 26 27 27 26 25 24 24 24 23 22 22 21 20 18 18 17 17 16 15 13 13 11 10 9 11 12 15 17 16 11 10 9 7 6 5 8 8 5 11 12 11 10
28 27 27 25 24 24 24 25 25 24 23 21 21 21 19 17 18 17 16 15 15 14 13 12 8 7 9 11 18 18 12 11 11 10 8 7 10 8 3 6 10 12 12
28 28 26 25 23 23 23 24 24 23 22 21 21 20 19 18 17 17 16 15 15 15 14 12 9 5 5 7 13 18 15 8 10 9 9 9 12 10 7 7 12 12 11
27 26 26 25 23 22 21 24 23 22 22 21 21 20 20 18 17 16 16 15 14 14 13 11 8 5 4 5 9 15 11 6 7 9 14 15 15 14 11 13 11 9 8
27 25 26 25 24 23 23 23 23 22 22 21 19 17 17 16 16 15 15 15 14 13 12 10 8 6 6 6 7 10 10 9 10 13 15 14 11 10 12 11 8 7 6
26 25 24 24 25 24 24 24 23 22 22 21 18 16 15 15 14 15 14 15 14 10 9 8 6 7 9 10 10 11 13 13 13 15 13 12 12 12 11 10 8 7 7
27 26 26 26 26 25 25 23 22 21 20 18 17 14 12 12 13 14 14 15 14 8 8 6 5 5 6 11 11 12 12 16 20 16 14 13 13 12 12 11 10 9 9
Wind_Direction
163 162 162 156 154 158 165 176 181 168 189 198 245 263 280 290 289 287 301 304 321 326 312 306 308 294 290 291 289 285 280 272 269 267 266 259 251 245 241 239 242 243 242
175 171 169 165 164 160 161 170 177 174 195 189 234 266 294 284 294 279 255 277 308 313 306 308 298 295 293 284 280 278 277 275 267 262 268 266 256 242 238 237 236 242 243
194 182 179 175 173 175 182 185 188 194 210 214 231 232 242 255 251 254 251 265 295 302 304 298 296 297 291 287 286 284 276 274 270 257 255 262 261 259 243 229 233 237 241
205 185 181 185 193 198 208 213 220 223 222 225 242 262 279 290 300 290 288 287 283 296 299 296 294 289 285 282 279 276 274 271 270 264 251 251 268 272 263 236 227 229 234
207 185 198 233 258 273 269 256 245 240 234 234 239 252 268 285 290 284 274 281 288 287 295 300 299 294 290 290 288 284 276 270 266 268 264 254 250 251 256 256 245 224 224
54 31 7 351 336 323 305 288 270 258 247 240 243 248 268 277 282 275 281 282 293 294 299 305 302 297 297 298 294 289 281 275 271 267 264 258 250 244 242 246 247 244 233
38 31 23 15 5 355 343 328 311 295 282 259 250 249 256 261 258 265 270 282 298 305 316 312 305 302 301 298 295 290 283 279 274 268 264 259 254 254 255 251 250 249 236
47 44 37 33 26 21 14 7 357 344 334 310 284 265 255 254 257 248 268 278 291 303 314 304 299 299 300 300 298 291 284 278 274 269 265 262 257 251 247 245 245 242 229
43 41 37 34 30 28 25 20 16 13 7 357 339 304 282 270 270 260 252 266 274 286 291 296 296 297 300 301 299 291 288 282 275 271 265 260 257 251 245 240 235 232 224
32 27 24 21 17 17 16 16 16 16 13 10 0 348 323 294 276 269 269 272 274 274 278 283 290 295 298 299 297 294 290 286 281 277 273 266 260 253 245 236 230 226 224
16 14 12 8 5 4 3 2 1 1 2 2 359 355 347 330 306 283 275 270 268 267 266 271 281 288 293 297 297 296 297 295 293 288 282 277 269 257 247 238 229 221 212
356 355 355 353 353 353 352 351 348 347 346 345 343 343 342 339 331 316 298 282 269 262 259 261 269 278 284 291 295 300 304 304 304 304 303 297 284 262 248 233 222 209 192
340 339 341 341 341 341 339 337 336 336 334 332 329 330 329 330 330 325 315 298 279 266 259 253 256 263 271 280 288 295 303 309 319 330 331 328 317 287 223 179 159 147 140
323 322 323 323 323 321 321 319 318 319 320 320 318 315 313 315 316 317 315 307 292 273 258 249 247 249 253 263 272 281 295 312 332 353 2 13 27 60 89 96 103 111 116
304 299 294 291 286 284 282 281 283 284 287 294 295 294 296 298 300 303 304 304 295 279 263 248 239 236 237 242 247 255 259 284 348 29 37 53 66 72 85 97 100 104 109
299 300 297 294 292 290 286 281 275 272 267 268 272 275 281 287 291 294 297 298 297 288 272 253 237 228 226 171 201 257 224 205 130 83 79 94 94 93 93 94 91 96 120
305 307 307 306 303 301 298 292 286 281 275 272 270 265 263 268 274 282 289 296 302 298 283 263 244 230 210 170 195 230 235 193 149 117 109 104 109 117 117 108 100 85 66
314 310 307 305 302 301 300 297 293 287 281 278 277 273 270 270 269 271 276 284 292 296 294 279 258 238 209 181 193 202 220 193 161 135 123 121 125 125 132 132 121 101 63
308 306 304 303 302 301 298 295 291 286 280 278 277 276 272 271 270 269 272 277 282 286 289 287 277 251 218 185 188 195 204 190 176 153 138 137 131 126 136 134 127 114 93
306 304 303 301 299 298 297 294 290 286 282 280 278 275 272 268 266 266 267 270 275 276 279 281 281 270 239 193 185 195 203 185 175 158 142 114 129 142 163 153 145 134 126
305 305 303 302 301 300 297 291 287 284 283 282 279 274 270 266 263 263 262 262 264 269 273 275 270 271 266 205 187 193 206 185 181 172 165 134 126 132 130 168 152 141 139
307 307 306 305 304 302 298 292 287 286 285 281 276 271 266 263 262 259 257 256 258 261 264 264 258 241 258 241 199 195 218 217 182 170 150 129 129 122 116 119 122 137 152
308 309 307 305 303 300 295 290 288 286 284 280 275 270 264 258 255 257 256 252 247 252 259 259 248 219 203 223 198 192 206 223 183 141 116 127 131 126 113 119 135 162 162
309 309 306 303 300 297 293 288 286 284 280 276 273 269 263 256 252 250 250 248 245 243 249 254 244 211 191 197 188 187 184 158 137 125 123 131 140 127 119 142 165 175 157
308 308 305 302 299 297 294 291 288 285 280 276 270 264 259 254 255 254 250 249 244 243 248 258 243 211 195 195 191 183 179 175 156 145 147 151 151 150 154 160 159 152 150
308 308 305 302 299 298 295 293 290 285 280 275 269 261 251 249 249 250 246 225 229 192 193 229 248 233 204 175 181 185 178 161 152 159 162 162 163 161 160 160 158 159 156
Height
1508 1509 1511 1513 1515 1517 1519 1520 1521 1521 1522 1523 1523 1523 1523 1522 1521 1520 1518 1517 1515 1514 1511 1511 1509 1507 1506 1505 1503 1502 1502 1501 1500 1499 1497 1496 1495 1494 1494 1495 1497 1499 1500
1506 1508 1510 1512 1515 1517 1518 1519 1519 1520 1521 1521 1520 1520 1520 1520 1519 1518 1515 1514 1512 1510 1509 1506 1504 1503 1501 1498 1497 1496 1494 1494 1495 1494 1492 1490 1489 1486 1487 1488 1489 1491 1493
1505 1507 1510 1513 1515 1517 1518 1518 1518 1518 1519 1519 1519 1518 1517 1516 1516 1515 1513 1511 1508 1506 1504 1501 1499 1497 1495 1493 1490 1489 1487 1486 1487 1487 1487 1484 1480 1480 1480 1480 1482 1483 1485
1505 1508 1511 1513 1515 1516 1517 1516 1516 1516 1516 1517 1517 1517 1516 1515 1514 1512 1511 1508 1505 1502 1500 1497 1494 1492 1489 1487 1485 1483 1481 1479 1478 1479 1478 1478 1477 1477 1475 1475 1475 1476 1478
1505 1508 1511 1513 1514 1515 1515 1514 1513 1513 1513 1513 1513 1513 1513 1512 1510 1508 1506 1503 1502 1498 1496 1493 1491 1488 1486 1483 1480 1478 1476 1474 1472 1471 1471 1471 1471 1471 1471 1470 1470 1471 1472
1506 1508 1511 1512 1512 1512 1512 1511 1510 1510 1510 1510 1509 1509 1508 1507 1506 1504 1502 1501 1499 1496 1494 1490 1487 1484 1482 1479 1476 1473 1471 1468 1466 1465 1465 1464 1464 1464 1465 1464 1465 1465 1467
1507 1508 1509 1509 1509 1509 1508 1507 1506 1506 1505 1505 1504 1504 1504 1503 1501 1500 1499 1497 1496 1493 1490 1487 1483 1481 1478 1475 1472 1469 1466 1463 1461 1459 1458 1457 1457 1458 1458 1458 1458 1459 1461
1511 1511 1511 1509 1509 1507 1505 1504 1502 1501 1500 1500 1499 1499 1499 1499 1498 1497 1495 1493 1491 1489 1486 1483 1480 1477 1474 1471 1468 1465 1462 1459 1455 1453 1451 1450 1450 1451 1451 1452 1453 1454 1456
1516 1515 1514 1513 1511 1508 1505 1503 1501 1499 1497 1496 1495 1494 1494 1494 1493 1492 1490 1489 1487 1485 1482 1479 1477 1473 1470 1467 1464 1461 1457 1454 1450 1448 1446 1444 1443 1443 1444 1445 1447 1449 1450
1519 1518 1516 1514 1512 1510 1508 1505 1501 1498 1495 1493 1492 1490 1489 1488 1487 1487 1486 1484 1483 1481 1479 1476 1473 1470 1467 1463 1460 1456 1453 1449 1445 1443 1440 1439 1438 1437 1438 1439 1440 1442 1445
1522 1520 1517 1515 1512 1510 1507 1504 1500 1497 1494 1492 1489 1487 1484 1483 1481 1480 1480 1479 1478 1476 1474 1472 1469 1467 1463 1460 1456 1452 1448 1444 1441 1438 1436 1434 1433 1432 1432 1433 1434 1437 1440
1522 1520 1517 1514 1511 1507 1504 1501 1498 1495 1492 1489 1486 1483 1481 1478 1475 1474 1473 1473 1471 1470 1469 1467 1465 1463 1460 1456 1453 1449 1445 1441 1438 1435 1433 1431 1429 1427 1428 1429 1430 1433 1436
1520 1517 1514 1510 1507 1503 1500 1496 1493 1490 1487 1484 1481 1478 1475 1473 1470 1467 1466 1465 1464 1463 1463 1462 1460 1458 1456 1453 1450 1446 1442 1439 1436 1433 1431 1429 1427 1425 1425 1426 1428 1430 1433
1517 1512 1508 1504 1501 1497 1494 1490 1486 1483 1479 1476 1474 1471 1469 1466 1463 1460 1458 1457 1456 1456 1455 1455 1454 1453 1451 1450 1447 1444 1441 1438 1435 1433 1431 1429 1426 1425 1425 1425 1427 1430 1433
1511 1506 1501 1497 1493 1490 1487 1483 1480 1476 1471 1467 1465 1463 1462 1459 1456 1454 1452 1450 1449 1448 1447 1447 1447 1447 1446 1446 1444 1442 1440 1437 1435 1433 1432 1431 1429 1427 1427 1428 1429 1432 1435
1505 1501 1497 1492 1488 1484 1480 1477 1473 1469 1465 1461 1458 1456 1455 1453 1451 1450 1448 1446 1443 1441 1440 1439 1440 1440 1441 1440 1440 1439 1439 1437 1436 1435 1434 1433 1432 1431 1431 1432 1434 1437 1441
1499 1494 1490 1486 1482 1478 1474 1470 1466 1463 1459 1456 1453 1451 1449 1448 1446 1444 1442 1440 1438 1434 1432 1432 1432 1433 1434 1435 1436 1436 1436 1437 1436 1435 1435 1435 1434 1435 1436 1437 1440 1443 1446
1492 1487 1483 1478 1474 1470 1465 1461 1457 1454 1451 1448 1446 1444 1443 1441 1440 1438 1437 1434 1432 1429 1426 1425 1425 1426 1428 1429 1431 1433 1434 1436 1436 1436 1436 1436 1437 1438 1440 1442 1444 1447 1450
1486 1480 1475 1470 1465 1460 1456 1452 1448 1445 1442 1439 1437 1436 1434 1433 1432 1431 1430 1429 1426 1423 1421 1419 1418 1419 1421 1424 1427 1429 1432 1434 1435 1436 1437 1438 1439 1441 1443 1445 1447 1449 1452
1478 1472 1466 1461 1455 1451 1447 1442 1438 1435 1432 1430 1428 1426 1425 1424 1423 1423 1422 1421 1420 1418 1415 1413 1411 1411 1414 1418 1422 1425 1429 1432 1434 1435 1436 1438 1440 1442 1444 1447 1448 1450 1453
1469 1463 1457 1451 1446 1441 1437 1431 1427 1424 1421 1419 1417 1416 1415 1414 1414 1414 1413 1413 1412 1411 1409 1407 1405 1404 1406 1410 1416 1421 1425 1429 1431 1433 1436 1437 1439 1442 1444 1447 1449 1451 1453
1459 1454 1447 1441 1436 1432 1426 1420 1416 1413 1411 1408 1406 1405 1404 1404 1404 1404 1404 1404 1404 1403 1403 1401 1399 1398 1399 1402 1409 1416 1422 1426 1429 1431 1434 1435 1438 1441 1444 1447 1449 1452 1455
1450 1444 1437 1430 1425 1421 1416 1409 1404 1402 1399 1396 1394 1393 1393 1393 1393 1394 1394 1395 1396 1396 1396 1395 1394 1393 1393 1397 1403 1411 1418 1423 1427 1429 1431 1434 1438 1441 1444 1447 1450 1453 1456
1441 1434 1427 1420 1413 1409 1404 1398 1393 1389 1386 1383 1382 1381 1381 1381 1383 1384 1385 1386 1387 1388 1388 1389 1388 1387 1389 1392 1398 1406 1413 1419 1424 1427 1430 1434 1437 1441 1443 1447 1450 1453 1455
1431 1425 1417 1409 1402 1396 1390 1385 1381 1377 1373 1371 1370 1369 1370 1371 1372 1374 1375 1377 1379 1381 1382 1383 1383 1384 1385 1389 1394 1402 1410 1416 1422 1425 1429 1433 1437 1440 1444 1447 1450 1452 1454
1422 1414 1406 1398 1389 1383 1377 1372 1368 1364 1361 1358 1357 1358 1359 1360 1362 1364 1366 1368 1371 1374 1376 1378 1379 1380 1383 1386 1392 1400 1408 1414 1419 1424 1429 1432 1436 1440 1443 1446 1449 1451 1454